Weather History for Hatteras, NC

Change the Weather History Date:

Wednesday, October 9, 2013

  Actual Average Record
Temperature  
Mean Temperature 70 °F 68 °F  
Max Temperature 73 °F 74 °F 85 °F (1990)
Min Temperature 66 °F 62 °F 44 °F (1978)
Degree Days  
Heating Degree Days 0 1  
Month to date heating degree days 0 9  
Since 1 July heating degree days 4 12  
Cooling Degree Days 5 4  
Month to date cooling degree days 73 45  
Year to date cooling degree days 1909 1637  
Growing Degree Days 20 (Base 50)    
Moisture  
Dew Point 69 °F    
Average Humidity 97    
Maximum Humidity 100    
Minimum Humidity 93    
Precipitation  
Precipitation 6.30 in 0.17 in 6.30 in (2013)
Month to date precipitation 7.48 1.63  
Year to date precipitation 43.51 45.07  
Snow  
Snow 0.00 in - - ()
Month to date snowfall 0.0  
Since 1 July snowfall 0.0  
Snow Depth 0.00 in    
Sea Level Pressure  
Sea Level Pressure 29.90 in    
Wind  
Wind Speed 12 mph (NE)    
Max Wind Speed 23 mph    
Max Gust Speed 40 mph    
Visibility 3 miles    
Events Fog , Rain , Thunderstorm    
T = Trace of Precipitation, MM = Missing Value Source: NWS Daily Summary

Daily Weather History Graph

Daily Weather History Graph

Search for Another Location

Airport:

Trip Planner

Search our weather history database for the weather conditions in past years. The results will help you decide how hot, cold, wet, or windy it might be!

Date:

Astronomy

Oct. 09, 2013 Rise Set
Actual Time 7:03 AM EDT 6:34 PM EDT
Civil Twilight 6:38 AM EDT 7:00 PM EDT
Nautical Twilight 6:08 AM EDT 7:29 PM EDT
Astronomical Twilight 5:39 AM EDT 7:59 PM EDT
Moon 11:48 AM EDT (10/9) 10:15 PM EDT (10/9)
Length of Visible Light 12h 21m
Length of Day
11h 31m
Waxing Crescent, 25% of the Moon is Illuminated
Oct 9
Waxing Crescent
Oct 11
First Quarter
Oct 18
Full
Oct 26
Last Quarter
Nov 3
New

Hourly Weather History & Observations

Time (EDT) Temp. Dew Point Humidity Pressure Visibility Wind Dir Wind Speed Gust Speed Precip Events Conditions
12:51 AM 66.0 °F 64.0 °F 93% 30.01 in 5.0 mi NE 12.7 mph 33.4 mph 0.07 in Rain Light Rain
1:41 AM 66.2 °F 64.4 °F 94% 29.98 in 2.0 mi NE 18.4 mph 34.5 mph 0.24 in Rain Rain
1:46 AM 66.2 °F 64.4 °F 94% 29.99 in 4.0 mi NE 16.1 mph 32.2 mph 0.24 in Rain Light Rain
1:51 AM 66.0 °F 64.0 °F 93% 29.99 in 6.0 mi NE 18.4 mph 32.2 mph 0.25 in Rain Light Rain
2:31 AM 66.2 °F 64.4 °F 94% 29.99 in 1.8 mi NE 17.3 mph 31.1 mph 0.19 in Rain Heavy Rain
2:48 AM 66.2 °F 64.4 °F 94% 29.98 in 2.0 mi NNE 18.4 mph 32.2 mph 0.37 in Rain Heavy Rain
2:49 AM 66.0 °F 64.0 °F 93% 29.99 in 2.0 mi NNE 18.4 mph 32.2 mph 0.38 in Rain Heavy Rain
3:34 AM 66.2 °F 64.4 °F 94% 29.97 in 2.5 mi NNE 17.3 mph 29.9 mph 0.29 in Rain Heavy Rain
3:41 AM 66.2 °F 64.4 °F 94% 29.97 in 2.5 mi NNE 13.8 mph 31.1 mph 0.34 in Rain Heavy Rain
3:51 AM 66.0 °F 64.9 °F 96% 29.96 in 2.0 mi NNE 17.3 mph 33.4 mph 0.39 in Rain Heavy Rain
4:00 AM 66.2 °F 64.4 °F 94% 29.97 in 1.8 mi NNE 18.4 mph 31.1 mph 0.11 in Rain Heavy Rain
4:08 AM 66.2 °F 64.4 °F 94% 29.96 in 2.0 mi NNE 16.1 mph 32.2 mph 0.17 in Rain Heavy Rain
4:33 AM 66.2 °F 66.2 °F 100% 29.96 in 1.8 mi NE 17.3 mph 34.5 mph 0.36 in Rain Heavy Rain
4:51 AM 66.9 °F 66.0 °F 97% 29.95 in 1.8 mi NNE 17.3 mph 35.7 mph 0.60 in Rain Heavy Rain
5:17 AM 66.2 °F 66.2 °F 100% 29.96 in 2.0 mi NE 16.1 mph 32.2 mph 0.26 in Rain Heavy Rain
5:21 AM 66.2 °F 66.2 °F 100% 29.95 in 1.8 mi NNE 17.3 mph 32.2 mph 0.28 in Rain Heavy Rain
5:31 AM 66.2 °F 66.2 °F 100% 29.94 in 1.2 mi NNE 15.0 mph 34.5 mph 0.43 in Rain Heavy Rain
5:37 AM 66.2 °F 66.2 °F 100% 29.95 in 2.0 mi NE 16.1 mph 29.9 mph 0.47 in Rain Heavy Rain
5:51 AM 66.9 °F 66.0 °F 97% 29.95 in 2.0 mi NE 20.7 mph 31.1 mph 0.58 in Rain Heavy Rain
6:09 AM 68.0 °F 66.2 °F 94% 29.95 in 3.0 mi NE 18.4 mph 33.4 mph 0.08 in Rain Rain
6:51 AM 68.0 °F 66.9 °F 96% 29.95 in 5.0 mi NE 18.4 mph 32.2 mph 0.21 in Rain Light Rain
7:41 AM 66.2 °F 66.2 °F 100% 29.95 in 3.0 mi NE 23.0 mph 40.3 mph 0.02 in Rain Rain
7:46 AM 66.2 °F 66.2 °F 100% 29.96 in 1.8 mi NE 10.4 mph 40.3 mph 0.07 in Rain Heavy Rain
7:49 AM 66.2 °F 66.2 °F 100% 29.96 in 2.0 mi NNE 17.3 mph 40.3 mph 0.09 in Rain Rain
7:51 AM 66.9 °F 66.0 °F 97% 29.96 in 2.5 mi NNE 12.7 mph 27.6 mph 0.09 in Rain Rain
7:54 AM 66.2 °F 66.2 °F 100% 29.95 in 3.0 mi NNE 16.1 mph 31.1 mph 0.01 in Rain Rain
8:06 AM 66.2 °F 66.2 °F 100% 29.94 in 4.0 mi NNE 12.7 mph 31.1 mph 0.03 in Rain Light Rain
8:17 AM 68.0 °F 66.2 °F 94% 29.95 in 6.0 mi NNE 13.8 mph 29.9 mph 0.04 in Rain Light Rain
8:42 AM 68.0 °F 66.2 °F 94% 29.95 in 2.0 mi NNE 15.0 mph 27.6 mph 0.09 in Rain Rain
8:51 AM 68.0 °F 66.9 °F 96% 29.94 in 2.0 mi NNE 12.7 mph 25.3 mph 0.14 in Rain Heavy Rain
9:13 AM 68.0 °F 66.2 °F 94% 29.94 in 4.0 mi NE 15.0 mph 23.0 mph 0.07 in Rain Light Rain
9:31 AM 69.8 °F 68.0 °F 94% 29.93 in 4.0 mi NE 16.1 mph 25.3 mph 0.10 in Rain Light Rain
9:51 AM 69.1 °F 68.0 °F 96% 29.95 in 4.0 mi NE 13.8 mph 24.2 mph 0.12 in Rain Light Rain
9:59 AM 69.8 °F 68.0 °F 94% 29.95 in 4.0 mi NNE 12.7 mph 27.6 mph 0.00 in Rain Light Rain
10:51 AM 70.0 °F 69.1 °F 97% 29.93 in 4.0 mi NE 13.8 mph 24.2 mph 0.06 in Rain Light Rain
11:51 AM 70.0 °F 69.1 °F 97% 29.92 in 4.0 mi NE 15.0 mph 28.8 mph 0.05 in Rain Light Rain
12:51 PM 70.0 °F 69.1 °F 97% 29.91 in 6.0 mi NE 12.7 mph 23.0 mph 0.04 in   Overcast
1:02 PM 69.8 °F 69.8 °F 100% 29.90 in 5.0 mi NE 12.7 mph 25.3 mph 0.00 in Rain Light Rain
1:51 PM 71.1 °F 69.1 °F 93% 29.88 in 4.0 mi ENE 9.2 mph 20.7 mph 0.02 in Rain Light Rain
1:59 PM 71.6 °F 69.8 °F 94% 29.88 in 2.5 mi NE 10.4 mph 20.7 mph 0.02 in Rain Rain
2:03 PM 71.6 °F 69.8 °F 94% 29.88 in 1.8 mi NE 10.4 mph 20.7 mph 0.03 in Rain Rain
2:18 PM 71.6 °F 69.8 °F 94% 29.87 in 2.0 mi NE 12.7 mph 21.9 mph 0.10 in Rain Rain
2:25 PM 71.6 °F 69.8 °F 94% 29.87 in 3.0 mi NE 12.7 mph 21.9 mph 0.11 in Rain Light Rain
2:51 PM 71.1 °F 70.0 °F 96% 29.86 in 3.0 mi NE 11.5 mph 18.4 mph 0.14 in Rain Rain
3:33 PM 71.6 °F 69.8 °F 94% 29.86 in 2.5 mi NE 10.4 mph 20.7 mph 0.05 in Rain Rain
3:40 PM 71.6 °F 69.8 °F 94% 29.86 in 1.2 mi NE 11.5 mph 20.7 mph 0.10 in Rain Heavy Rain
3:51 PM 72.0 °F 71.1 °F 97% 29.85 in 0.8 mi NNE 9.2 mph 19.6 mph 0.27 in Rain Heavy Rain
3:54 PM 71.6 °F 71.6 °F 100% 29.85 in 0.8 mi NNE 6.9 mph 19.6 mph 0.03 in Rain Heavy Rain
4:14 PM 71.6 °F 69.8 °F 94% 29.86 in 1.5 mi NE 9.2 mph 24.2 mph 0.27 in Rain Light Rain
4:17 PM 71.6 °F 69.8 °F 94% 29.86 in 2.5 mi NE 11.5 mph 24.2 mph 0.27 in Rain Light Rain
4:20 PM 71.6 °F 69.8 °F 94% 29.86 in 2.0 mi NE 6.9 mph 24.2 mph 0.28 in Rain , Thunderstorm Light Rain
4:28 PM 71.6 °F 69.8 °F 94% 29.87 in 1.5 mi East 10.4 mph 19.6 mph 0.32 in Rain , Thunderstorm Rain
4:33 PM 71.6 °F 71.6 °F 100% 29.87 in 0.8 mi East 12.7 mph - 0.39 in Rain , Thunderstorm Heavy Rain
4:40 PM 71.6 °F 71.6 °F 100% 29.86 in 0.5 mi ENE 10.4 mph - 0.69 in Fog , Rain Heavy Rain
4:47 PM 71.6 °F 71.6 °F 100% 29.86 in 1.5 mi NE 9.2 mph 16.1 mph 0.74 in Rain Light Rain
4:49 PM 71.6 °F 71.6 °F 100% 29.86 in 2.5 mi ENE 8.1 mph - 0.74 in Rain Light Rain
4:51 PM 72.0 °F 71.1 °F 97% 29.86 in 3.0 mi NE 6.9 mph - 0.74 in Rain Light Rain
4:58 PM 71.6 °F 71.6 °F 100% 29.86 in 2.5 mi ENE 9.2 mph - 0.01 in Rain Light Rain
5:05 PM 71.6 °F 71.6 °F 100% 29.85 in 2.0 mi NE 5.8 mph - 0.05 in Rain Light Rain
5:23 PM 71.6 °F 71.6 °F 100% 29.85 in 3.0 mi NNE 9.2 mph - 0.08 in Rain Light Rain
5:43 PM 71.6 °F 71.6 °F 100% 29.85 in 6.0 mi NE 6.9 mph - 0.08 in Rain Light Rain
5:51 PM 72.0 °F 71.1 °F 97% 29.85 in 6.0 mi NE 9.2 mph - 0.08 in Rain Light Rain
6:20 PM 71.6 °F 71.6 °F 100% 29.84 in 6.0 mi NE 6.9 mph - 0.00 in   Overcast
6:30 PM 71.6 °F 71.6 °F 100% 29.84 in 5.0 mi Calm Calm - 0.00 in Rain , Thunderstorm Light Thunderstorms and Rain
6:51 PM 72.0 °F 71.1 °F 97% 29.84 in 5.0 mi NE 5.8 mph - 0.00 in Thunderstorm Mostly Cloudy
7:07 PM 73.4 °F 71.6 °F 94% 29.84 in 9.0 mi Calm Calm - N/A   Mostly Cloudy
7:16 PM 73.4 °F 71.6 °F 94% 29.85 in 1.8 mi South 4.6 mph - 0.06 in Rain Heavy Rain
7:24 PM 71.6 °F 71.6 °F 100% 29.84 in 1.2 mi SW 4.6 mph - 0.17 in Rain Heavy Rain
7:28 PM 71.6 °F 71.6 °F 100% 29.84 in 2.5 mi Calm Calm - 0.18 in Rain Rain
7:36 PM 71.6 °F 71.6 °F 100% 29.85 in 2.5 mi South 8.1 mph - 0.20 in Rain , Thunderstorm Rain
7:38 PM 71.6 °F 71.6 °F 100% 29.85 in 1.5 mi Variable 4.6 mph - 0.23 in Rain , Thunderstorm Heavy Rain
7:40 PM 71.6 °F 71.6 °F 100% 29.85 in 1.2 mi East 5.8 mph - 0.29 in Rain , Thunderstorm Heavy Rain
7:51 PM 72.0 °F 70.0 °F 93% 29.85 in 1.5 mi East 10.4 mph 19.6 mph 0.44 in Rain , Thunderstorm Heavy Thunderstorms and Rain
7:54 PM 71.6 °F 69.8 °F 94% 29.85 in 1.2 mi ENE 10.4 mph 19.6 mph 0.09 in Rain , Thunderstorm Heavy Thunderstorms and Rain
8:05 PM 71.6 °F 71.6 °F 100% 29.84 in 1.5 mi East 8.1 mph - 0.36 in Rain Heavy Rain
8:18 PM 73.4 °F 71.6 °F 94% 29.84 in 1.0 mi Variable 3.5 mph 21.9 mph 0.70 in Rain Heavy Rain
8:32 PM 73.4 °F 71.6 °F 94% 29.85 in 1.5 mi ESE 12.7 mph 19.6 mph 0.95 in Rain Heavy Rain
8:40 PM 71.6 °F 71.6 °F 100% 29.85 in 3.0 mi East 5.8 mph 19.6 mph 1.01 in Rain Light Rain
8:51 PM 72.0 °F 71.1 °F 97% 29.86 in 6.0 mi Variable 4.6 mph - 1.02 in Rain Light Rain
9:09 PM 71.6 °F 69.8 °F 94% 29.86 in 1.8 mi East 10.4 mph 19.6 mph 0.06 in Rain Heavy Rain
9:13 PM 71.6 °F 69.8 °F 94% 29.86 in 1.2 mi ENE 11.5 mph 19.6 mph 0.15 in Rain Heavy Rain
9:17 PM 71.6 °F 69.8 °F 94% 29.86 in 1.5 mi ENE 11.5 mph - 0.24 in Rain Heavy Rain
9:21 PM 71.6 °F 71.6 °F 100% 29.86 in 1.8 mi East 13.8 mph 24.2 mph 0.30 in Rain , Thunderstorm Heavy Rain
9:26 PM 71.6 °F 71.6 °F 100% 29.85 in 3.0 mi East 15.0 mph 24.2 mph 0.31 in Rain , Thunderstorm Rain
9:38 PM 69.8 °F 69.8 °F 100% 29.86 in 5.0 mi ENE 13.8 mph 23.0 mph 0.35 in Rain , Thunderstorm Light Thunderstorms and Rain
9:51 PM 70.0 °F 69.1 °F 97% 29.86 in 8.0 mi East 8.1 mph - 0.35 in Rain , Thunderstorm Light Thunderstorms and Rain
10:29 PM 71.6 °F 71.6 °F 100% 29.86 in 10.0 mi ENE 4.6 mph - 0.04 in Thunderstorm Thunderstorm
10:51 PM 72.0 °F 71.1 °F 97% 29.86 in 10.0 mi NE 9.2 mph - 0.04 in Thunderstorm Mostly Cloudy
11:28 PM 71.6 °F 69.8 °F 94% 29.86 in 1.8 mi ENE 11.5 mph 21.9 mph 0.13 in Rain , Thunderstorm Heavy Rain
11:34 PM 71.6 °F 69.8 °F 94% 29.86 in 3.0 mi ENE 11.5 mph 19.6 mph 0.19 in Rain , Thunderstorm Light Rain
11:51 PM 72.0 °F 71.1 °F 97% 29.85 in 10.0 mi NNE 9.2 mph - 0.19 in Thunderstorm Overcast
11:54 PM 71.6 °F 69.8 °F 94% 29.85 in 10.0 mi Variable 6.9 mph - N/A   Overcast